Starlink 31875

operational
NORAD ID: 59674 Int'l Des: 2024-084 Owner: SPXS Country: US Constellation: starlink
LEOCIRCULAR

About Starlink 31875

Description loading...

Live Position

Loading 3D Globe...

Upcoming Passes

Altitude History

Altitude vs Time

uPlot chart will show altitude changes over time

Two-Line Element Set

1 59674U 24084W 25350.77438098 .00001929 00000-0 79603-4 0 9990
2 59674 43.0017 146.4817 0001499 284.4444 75.6241 15.27580041 91730
Epoch: Dec 16, 2025 • Age: 19 hours

Current Status

Altitude 483.9 km
Velocity 7.62 km/s
Sub-Earth Point -8.97°S, 154.44°W
Launch Date May 6, 2024
Age 1.6 years
Type internet

Technical Details

Classification Payload
Mass 730.00 kg
Dry Mass 700.00 kg
Total Mass 730.00 kg
Length 0.30 m
Diameter 4.10 m
Span 29.00 m
Shape Box + pan
Manufacturer SPXS
Bus Type Starlink V2M
Phase Status In Orbit
Owner/State SPXS/US

Large Constellations

Loading constellations...